Location: Landeleau
(48.2273°N, 3.7285°W)
Time: 22:17:05
(UTC+00:00)

Cosmos 2251 Rocket - Pass Details

Date: 30 March 2020
Orbit: 765 x 791 km, 74.0° (Epoch: 26 May)

Event Time Altitude Azimuth Distance (km) Brightness Sun altitude
Rises 20:35:46 0° 194° (SSW) 3,262 6.6 -18.6°
Reaches altitude 10° 20:38:09 10° 193° (SSW) 2,341 5.8 -18.9°
Maximum altitude 20:43:27 73° 109° (ESE) 830 3.4 -19.7°
Drops below altitude 10° 20:48:49 10° 26° (NNE) 2,367 6.1 -20.4°
Sets 20:51:14 0° 25° (NNE) 3,301 6.9 -20.8°
